Location: Poughquag
(41.6090°N, 73.6820°W)
Time: 19:26:21
(UTC-04:00)

POLYITAN 1 - Pass Details

Date: 20 September 2024
Orbit: 536 x 557 km, 98.1° (Epoch: 04 October)

Event Time Altitude Azimuth Distance (km) Brightness Sun altitude
Rises 03:33:23 0° 38° (NE) 2,703 ? -33.5°
Reaches altitude 10° 03:37:20 10° 78° (ENE) 1,798 ? -32.9°
Maximum altitude 03:38:09 11° 91° (E) 1,761 ? -32.8°
Drops below altitude 10° 03:38:56 10° 102° (ESE) 1,791 ? -32.6°
Enters shadow 03:39:04 10° 104° (ESE) 1,802 ? -32.6°
